Regional Weather Roundup
Issued by NWS

Home | Current Version | Previous Version | Text Only | Print | Product List | Glossary On
Versions: 1 2 3 4 5 6 7 8 9 10 11 12 13 14 15 16 17 18 19 20 21 22 23 24 25 26 27 28 29 30 31 32 33 34 35 36 37 38 39 40 41 42 43 44 45 46 47 48 49 50
000
ASUS44 KFWD 250515
RWRTX
NORTH TEXAS HOURLY WEATHER ROUNDUP
NATIONAL WEATHER SERVICE FORT WORTH TX
1200 AM CDT MON MAY 25 2015

NOTE: "FAIR" INDICATES FEW OR NO CLOUDS BELOW 12,000 FEET WITH NO
SIGNIFICANT WEATHER AND/OR OBSTRUCTIONS TO VISIBILITY.

TXZ118-119-250600-
DALLAS/FORT WORTH METROPLEX

CITY           SKY/WX    TMP DP  RH WIND       PRES   REMARKS
DFW AIRPORT    PTCLDY    69  69 100 S8        29.88F
DALLAS LOVE    PTCLDY    74  70  87 S13       29.89F
FTW MEACHAM    CLOUDY    73  69  87 SE10      29.88S
DAL-EXECUTIVE  CLEAR     72  69  90 S8        29.89F
FTW-ALLIANCE   PTCLDY    71  69  93 S10       29.88F
FTW-NAS-JRB    MOCLDY    73  69  87 SE6       29.89S
FTW-SPINKS     CLEAR     71  69  92 CALM      29.91S
ARLINGTON      MOCLDY    74  68  81 SE8       29.89F
GRAND PRAIRIE  PTCLDY    72  72 100 SE7       29.91S
ADDISON        PTCLDY    73  73 100 S9        29.91S
MESQUITE       PTCLDY    72  70  96 S8        29.91S
LANCASTER      CLEAR     71  67  88 S6        29.91F
$$

TXZ091>094-102>105-117-120-121-131>134-250600-
NORTH CENTRAL TEXAS

CITY           SKY/WX    TMP DP  RH WIND       PRES   REMARKS
SHRMAN/DENISON CLEAR     70  69  96 SE10      29.90F
GAINESVILLE    CLEAR     66  65  94 SE5       29.90F
BOWIE          CLEAR     65  65 100 SE6       29.87F
BRIDGEPORT     CLEAR     68  68 100 SE8       29.89F
DECATUR        CLEAR     67  66  95 SE9       29.89S
DENTON         CLEAR     69  67  93 SE8       29.88F
MCKINNEY       PTCLDY    70  68  93 SE6       29.90S
GREENVILLE     MOCLDY    70  68  94 SE5       29.92S
ROCKWALL       MOCLDY    71  70  98 SE3       29.89F
TERRELL        MOCLDY    71  70  96 SE7       29.91S
WAXAHACHIE     CLOUDY    71  71 100 SE7       29.91F
CLEBURNE       CLEAR     72  72 100 SE8       29.91S
GRANBURY       CLEAR     71  68  91 SE6       29.90S
$$

TXZ083>090-098>101-113>116-127>130-139>142-154-155-250600-
WESTERN NORTH TEXAS

CITY           SKY/WX    TMP DP  RH WIND       PRES   REMARKS
WICHITA FALLS  CLEAR     69  65  86 S14       29.84S
WF-KICKAPOO    CLEAR     71  66  85 SE13      29.85F
VERNON         CLEAR     70  61  72 S13G18    29.82S
ABILENE        CLEAR     70  65  84 SE14      29.87R
BRECKENRIDGE   CLEAR     73  65  76 S15G22    29.85S
GRAHAM         CLEAR     69  67  95 SE8       29.85S
MINERAL WELLS  CLEAR     69  67  93 SE6       29.87S
STEPHENVILLE   PTCLDY    71  67  87 S8        29.92F
COMANCHE       CLEAR     67  67 100 SE7       29.89F
BROWNWOOD      CLEAR     70  66  88 SE10G16   29.89S
COLEMAN        CLEAR     71  68  90 S9        29.89R
BRADY          CLEAR     70  68  94 SE8       29.90S
$$

TXZ143>147-156>162-174-175-250600-
CENTRAL TEXAS

CITY           SKY/WX    TMP DP  RH WIND       PRES   REMARKS
WACO           LGT RAIN  73  68  84 S17       29.90R
WACO-MCGREGOR  CLEAR     72  64  78 S13       29.91F
HILLSBORO      CLEAR     72  67  85 SE9       29.90F
CORSICANA      CLEAR     72  69  90 SE8       29.92S
MEXIA          CLEAR     70  68  94 SE7       29.91S
HEARNE         CLEAR     71  69  93 SE6       29.93S
CAMERON        CLEAR     72  69  90 S8        29.91S
TEMPLE         CLEAR     72  64  78 SE13      29.90S
KILLEEN        CLEAR     70  68  95 S9        29.90S
KILLEEN-SKYLRK CLEAR     72  64  78 SE9       29.91S
FORT HOOD      CLEAR     71  68  90 SE10      29.90S
GATESVILLE     CLEAR     73  70  88 S10       29.92S
HAMILTON       CLEAR     70  70 100 S14       29.91F
LAMPASAS       CLEAR     71  69  93 SE7       29.90S
$$

TXZ095>097-106>112-122>126-135>138-148>153-164>167-250600-
EAST TEXAS

CITY           SKY/WX    TMP DP  RH WIND       PRES   REMARKS
PARIS          PTCLDY    70  64  83 S12       29.92S
SULPHUR SPRNGS MOCLDY    71  70  97 SE8       29.94F
MOUNT PLEASANT PTCLDY    69  68  98 SE7       29.95S
GILMER         PTCLDY    69  68  98 SE3       29.95S
MINEOLA        CLEAR     70  70 100 SE5       29.94S
TYLER          CLOUDY    70  68  93 SE7       29.93S
LONGVIEW       CLEAR     71  68  90 S8        29.94S
MARSHALL       PTCLDY    73  71  92 SE3       29.98S
ATHENS         CLEAR     70  68  94 SE3       29.91S
PALESTINE      CLEAR     71  70  98 SE7       29.94S FOG
JACKSONVILLE   MOCLDY    71  69  95 S9        29.96S
HENDERSON      CLEAR     69  69  98 S6        29.96S
NACOGDOCHES      N/A     72  68  88 SE7       29.95F
LUFKIN         PTCLDY    72  69  90 SE7       29.95S
$$

SUPPLEMENTAL OBSERVATIONS (CENTRAL)

CITY           SKY/WX    TMP DP  RH WIND       PRES   REMARKS
LAKE TEXOMA      N/A     68  64  88 SE5         N/A
CADDO GRASSLND   N/A     70  66  88 S5          N/A
PAT MAYSE LAKE   N/A     70  68  94 SE9         N/A
GREENVILLE       N/A     70  66  88 S3          N/A
CEDAR HILL       N/A     72  68  88 SE8         N/A
LAKE LIMESTONE   N/A     70  64  83 S3          N/A
MCGREGOR         N/A     72  66  83 S13         N/A
$$

SUPPLEMENTAL OBSERVATIONS (WEST)

CITY           SKY/WX    TMP DP  RH WIND       PRES   REMARKS
MILLERS CREEK    N/A     70  66  88 S13         N/A
LBJ GRASSLAND    N/A     70  64  83 SE9         N/A
COMANCHE         N/A     66  63  88 S7          N/A
HAMBY            N/A     72  66  83 S13         N/A
IVIE RESERVOIR   N/A     70  64  83 SE8         N/A
COLORADO BEND    N/A     72  68  88 SW9         N/A
$$

SUPPLEMENTAL OBSERVATIONS (EAST)

CITY           SKY/WX    TMP DP  RH WIND       PRES   REMARKS
CLARKSVILLE      N/A     70  68  94 S7          N/A
TEXARKANA        N/A     70  66  88 SE1         N/A
LINDEN           N/A     70  66  88 S1          N/A
CADDO LAKE       N/A     70  68  94 SE1         N/A
GILMER           N/A     70  66  88 SE5         N/A
HENDERSON        N/A     70  64  83 S6          N/A
LUFKIN           N/A     72  68  88 MISG        N/A
N SABINE NF      N/A     70  68  94 MISG        N/A
S SABINE NF      N/A     66  64  94 CALM        N/A
$$

SUPPLEMENTAL OBSERVATIONS ARE A COLLECTION OF AUTOMATED INSTRUMENTS
THAT ARE MAINTAINED BY A VARIETY OF FEDERAL AND STATE AGENCIES.
CERTAIN ELEMENTS...SUCH AS HUMIDITY VALUES AND SUSTAINED WIND
SPEEDS...MAY BE APPROXIMATED.




USA.gov is the U.S. government's official web portal to all federal, state and local government web resources and services.